When you browse on this site, cookies collect data to enhance your experience and personalize the content and advertising you see.
Visit our Privacy Policy to learn more. By continuing to use the site, you agree to this use of cookies and data.

Hourly Weather Vanadzor

Today, 6 August, Thursday

Time Temperature Precipitation Wind Pressure Humidity
00:00 +13°C° 0 mm 1 mps 633 mmHg 87%
01:00 +12°C° 0 mm 1 mps 632 mmHg 87%
02:00 +12°C° 0 mm 1 mps 632 mmHg 88%
03:00 +12°C° 0 mm 1 mps 632 mmHg 88%
04:00 +12°C° 0 mm 1 mps 633 mmHg 89%
05:00 +12°C° 0 mm 1 mps 633 mmHg 89%
06:00 +13°C° 0 mm 1 mps 633 mmHg 90%
07:00 +15°C° 0 mm 1 mps 634 mmHg 84%
08:00 +16°C° 0 mm 1 mps 635 mmHg 77%
09:00 +18°C° 0 mm 2 mps 635 mmHg 71%
10:00 +19°C° 0 mm 2 mps 635 mmHg 71%
11:00 +19°C° 0 mm 2 mps 635 mmHg 70%
12:00 +20°C° 0 mm 2 mps 635 mmHg 70%
13:00 +20°C° 0.1 mm 2 mps 635 mmHg 69%
14:00 +21°C° 0.1 mm 2 mps 635 mmHg 69%
15:00 +21°C° 0.1 mm 2 mps 635 mmHg 68%
16:00 +20°C° 0 mm 2 mps 635 mmHg 70%
17:00 +20°C° 0 mm 2 mps 635 mmHg 73%
18:00 +20°C° 0 mm 2 mps 635 mmHg 75%
19:00 +18°C° 0 mm 2 mps 635 mmHg 79%
20:00 +16°C° 0 mm 1 mps 635 mmHg 83%
21:00 +14°C° 0 mm 1 mps 635 mmHg 87%
22:00 +14°C° 0 mm 1 mps 635 mmHg 86%
23:00 +13°C° 0 mm 1 mps 635 mmHg 86%

Tomorrow, 7 August, Friday

Time Temperature Precipitation Wind Pressure Humidity
00:00 +13°C° 0 mm 1 mps 635 mmHg 86%
01:00 +13°C° 0 mm 1 mps 636 mmHg 86%
02:00 +13°C° 0 mm 1 mps 636 mmHg 87%
03:00 +12°C° 0 mm 1 mps 636 mmHg 87%
04:00 +12°C° 0 mm 1 mps 636 mmHg 88%
05:00 +13°C° 0 mm 1 mps 636 mmHg 89%
06:00 +13°C° 0 mm 1 mps 636 mmHg 89%
07:00 +15°C° 0 mm 1 mps 637 mmHg 84%
08:00 +18°C° 0 mm 1 mps 637 mmHg 78%
09:00 +18°C° 0 mm 2 mps 638 mmHg 73%
10:00 +19°C° 0 mm 2 mps 638 mmHg 70%
11:00 +20°C° 0 mm 2 mps 638 mmHg 68%
12:00 +21°C° 0 mm 2 mps 638 mmHg 66%
13:00 +21°C° 0 mm 2 mps 637 mmHg 64%
14:00 +23°C° 0 mm 2 mps 637 mmHg 62%
15:00 +23°C° 0 mm 2 mps 637 mmHg 60%
16:00 +23°C° 0 mm 2 mps 637 mmHg 64%
17:00 +21°C° 0 mm 2 mps 637 mmHg 67%
18:00 +21°C° 0 mm 1 mps 636 mmHg 71%
19:00 +20°C° 0 mm 1 mps 636 mmHg 76%
20:00 +18°C° 0 mm 1 mps 636 mmHg 80%
21:00 +15°C° 0 mm 1 mps 636 mmHg 84%
22:00 +15°C° 0 mm 1 mps 636 mmHg 84%
23:00 +14°C° 0 mm 1 mps 636 mmHg 84%

Day after tomorrow, 8 August, Saturday

Time Temperature Precipitation Wind Pressure Humidity
00:00 +14°C° 0 mm 1 mps 636 mmHg 84%
01:00 +14°C° 0 mm 1 mps 635 mmHg 82%
02:00 +13°C° 0 mm 1 mps 635 mmHg 80%
03:00 +13°C° 0 mm 1 mps 635 mmHg 78%
04:00 +13°C° 0 mm 1 mps 635 mmHg 77%
05:00 +14°C° 0 mm 1 mps 635 mmHg 76%
06:00 +14°C° 0 mm 1 mps 635 mmHg 75%
07:00 +16°C° 0 mm 1 mps 636 mmHg 69%
08:00 +19°C° 0 mm 1 mps 636 mmHg 64%
09:00 +21°C° 0 mm 1 mps 636 mmHg 59%
10:00 +21°C° 0 mm 2 mps 636 mmHg 57%
11:00 +24°C° 0 mm 2 mps 636 mmHg 55%
12:00 +25°C° 0 mm 2 mps 636 mmHg 53%
13:00 +25°C° 0 mm 2 mps 636 mmHg 53%
14:00 +25°C° 0 mm 2 mps 636 mmHg 54%
15:00 +25°C° 0 mm 2 mps 635 mmHg 54%
16:00 +24°C° 0 mm 2 mps 635 mmHg 59%
17:00 +24°C° 0 mm 2 mps 634 mmHg 65%
18:00 +23°C° 0 mm 2 mps 634 mmHg 70%
19:00 +21°C° 0 mm 1 mps 634 mmHg 74%
20:00 +19°C° 0 mm 1 mps 633 mmHg 78%
21:00 +16°C° 0 mm 1 mps 633 mmHg 82%
22:00 +16°C° 0 mm 1 mps 633 mmHg 82%
23:00 +16°C° 0 mm 1 mps 633 mmHg 82%

9 August, Sunday

Time Temperature Precipitation Wind Pressure Humidity
00:00 +15°C° 0 mm 1 mps 633 mmHg 83%
01:00 +15°C° 0 mm 1 mps 633 mmHg 83%
02:00 +15°C° 0 mm 1 mps 632 mmHg 84%
03:00 +14°C° 0 mm 1 mps 632 mmHg 84%
04:00 +15°C° 0 mm 1 mps 632 mmHg 85%
05:00 +15°C° 0 mm 1 mps 632 mmHg 85%
06:00 +15°C° 0 mm 1 mps 633 mmHg 85%
07:00 +18°C° 0 mm 1 mps 633 mmHg 79%
08:00 +20°C° 0 mm 1 mps 633 mmHg 72%
09:00 +21°C° 0 mm 2 mps 634 mmHg 66%
10:00 +23°C° 0 mm 2 mps 634 mmHg 64%
11:00 +24°C° 0 mm 2 mps 634 mmHg 61%
12:00 +25°C° 0 mm 2 mps 634 mmHg 58%
13:00 +25°C° 0.4 mm 2 mps 634 mmHg 59%
14:00 +25°C° 0.4 mm 2 mps 633 mmHg 60%
15:00 +26°C° 0.4 mm 2 mps 633 mmHg 61%
16:00 +25°C° 0.3 mm 2 mps 633 mmHg 66%
17:00 +24°C° 0.3 mm 2 mps 632 mmHg 71%
18:00 +23°C° 0.3 mm 2 mps 632 mmHg 75%
19:00 +21°C° 0.1 mm 1 mps 632 mmHg 79%
20:00 +20°C° 0.1 mm 1 mps 632 mmHg 82%
21:00 +18°C° 0.1 mm 1 mps 631 mmHg 85%
22:00 +18°C° 0.1 mm 1 mps 631 mmHg 85%
23:00 +18°C° 0.1 mm 1 mps 632 mmHg 86%

10 August, Monday

Time Temperature Precipitation Wind Pressure Humidity
00:00 +16°C° 0.1 mm 1 mps 632 mmHg 86%
01:00 +16°C° 0 mm 1 mps 632 mmHg 86%
02:00 +16°C° 0 mm 1 mps 632 mmHg 86%
03:00 +15°C° 0 mm 1 mps 631 mmHg 86%
04:00 +15°C° 0 mm 1 mps 632 mmHg 86%
05:00 +15°C° 0 mm 1 mps 632 mmHg 87%
06:00 +15°C° 0 mm 1 mps 632 mmHg 87%
07:00 +18°C° 0 mm 1 mps 632 mmHg 81%
08:00 +20°C° 0 mm 1 mps 633 mmHg 75%
09:00 +21°C° 0 mm 2 mps 633 mmHg 69%
10:00 +23°C° 0 mm 2 mps 633 mmHg 66%
11:00 +24°C° 0 mm 2 mps 633 mmHg 63%
12:00 +25°C° 0 mm 2 mps 634 mmHg 60%
13:00 +26°C° 0.2 mm 2 mps 633 mmHg 61%
14:00 +26°C° 0.2 mm 2 mps 633 mmHg 61%
15:00 +26°C° 0.2 mm 3 mps 633 mmHg 62%
16:00 +25°C° 0.2 mm 3 mps 633 mmHg 66%
17:00 +24°C° 0.2 mm 3 mps 632 mmHg 71%
18:00 +22°C° 0.2 mm 3 mps 632 mmHg 76%
19:00 +20°C° 0 mm 2 mps 632 mmHg 79%
20:00 +18°C° 0 mm 2 mps 632 mmHg 82%
21:00 +18°C° 0 mm 1 mps 632 mmHg 86%
22:00 +16°C° 0 mm 1 mps 633 mmHg 86%
23:00 +16°C° 0 mm 1 mps 633 mmHg 86%

11 August, Tuesday

Time Temperature Precipitation Wind Pressure Humidity
00:00 +16°C° 0 mm 1 mps 633 mmHg 87%
01:00 +15°C° 0 mm 1 mps 633 mmHg 88%
02:00 +15°C° 0 mm 1 mps 633 mmHg 89%
03:00 +15°C° 0 mm 1 mps 633 mmHg 90%
04:00 +15°C° 0 mm 1 mps 633 mmHg 90%
05:00 +15°C° 0 mm 1 mps 633 mmHg 91%
06:00 +15°C° 0 mm 1 mps 633 mmHg 91%
07:00 +18°C° 0 mm 1 mps 634 mmHg 84%
08:00 +19°C° 0 mm 2 mps 634 mmHg 76%
09:00 +20°C° 0 mm 2 mps 635 mmHg 69%
10:00 +21°C° 0 mm 2 mps 635 mmHg 67%
11:00 +23°C° 0 mm 2 mps 635 mmHg 64%
12:00 +24°C° 0 mm 3 mps 635 mmHg 62%
13:00 +25°C° 0.2 mm 3 mps 635 mmHg 62%
14:00 +25°C° 0.2 mm 3 mps 635 mmHg 63%
15:00 +25°C° 0.2 mm 2 mps 634 mmHg 63%
16:00 +24°C° 0.2 mm 2 mps 634 mmHg 67%
17:00 +23°C° 0.2 mm 2 mps 634 mmHg 71%
18:00 +21°C° 0.2 mm 2 mps 634 mmHg 75%
19:00 +20°C° 0 mm 2 mps 634 mmHg 79%
20:00 +18°C° 0 mm 2 mps 634 mmHg 82%
21:00 +18°C° 0 mm 1 mps 634 mmHg 86%
22:00 +16°C° 0 mm 1 mps 634 mmHg 87%
23:00 +16°C° 0 mm 1 mps 634 mmHg 87%
Show more